New Baltimore, MI

1:28 AM EST on February 26, 2017 (GMT -0500)
Selfridge Angb

Weather History for KMTC - November, 2013

Change the Weather History Date:

Saturday, November 16, 2013

  Actual Average Record
Temperature  
Mean Temperature 42 °F -  
Max Temperature 52 °F 45 °F 70 °F (1953)
Min Temperature 31 °F 30 °F 16 °F (1967)
Degree Days  
Heating Degree Days 24    
Moisture  
Dew Point 42 °F    
Average Humidity 91    
Maximum Humidity 100    
Minimum Humidity 82    
Precipitation  
Precipitation 0.00 in - - ()
Sea Level Pressure  
Sea Level Pressure 30.01 in    
Wind  
Wind Speed 8 mph (SSE)    
Max Wind Speed 14 mph    
Max Gust Speed -    
Visibility 9 miles    
Events Rain    
Averages and records for this station are not official NWS values.
T = Trace of Precipitation, MM = Missing Value Source: NWS Daily Summary

Daily Weather History Graph

Daily Weather History Graph

Search for Another Location

Airport or City:

Trip Planner

Search our weather history database for the weather conditions in past years. The results will help you decide how hot, cold, wet, or windy it might be!

Date:

Astronomy

Nov. 16, 2013 Rise Set
Actual Time 7:24 AM EST 5:07 PM EST
Civil Twilight 6:53 AM EST 5:38 PM EST
Nautical Twilight 6:19 AM EST 6:12 PM EST
Astronomical Twilight 5:46 AM EST 6:45 PM EST
Moon 4:42 PM EST (11/16) 6:18 AM EST (11/16)
Length of Visible Light 10h 44m
Length of Day
9h 43m
Waxing Gibbous, 99% of the Moon is Illuminated
Nov 16
Waxing Gibbous
Nov 17
Full
Nov 25
Last Quarter
Dec 2
New
Dec 9
First Quarter

Hourly Weather History & Observations

Time (EST) Temp. Windchill Dew Point Humidity Pressure Visibility Wind Dir Wind Speed Gust Speed Precip Events Conditions
12:58 AM 36.5 °F 31.0 °F 31.5 °F 82% 30.09 in 10.0 mi South 6.9 mph - N/A   Mostly Cloudy
1:58 AM 34.3 °F 29.2 °F 30.2 °F 85% 30.09 in 10.0 mi South 5.8 mph - N/A   Clear
2:58 AM 34.5 °F 31.6 °F 31.3 °F 88% 30.09 in 10.0 mi South 3.5 mph - N/A   Clear
3:58 AM 31.6 °F 24.4 °F 29.1 °F 90% 30.10 in 10.0 mi South 8.1 mph - N/A   Clear
4:58 AM 32.9 °F 25.9 °F 31.3 °F 94% 30.10 in 10.0 mi South 8.1 mph - N/A   Clear
5:58 AM 33.3 °F 30.2 °F 32.5 °F 97% 30.12 in 10.0 mi South 3.5 mph - N/A   Clear
6:58 AM 32.2 °F - 32.0 °F 99% 30.13 in 10.0 mi SE 2.3 mph - N/A   Clear
7:55 AM 32.7 °F 29.6 °F 32.5 °F 99% 30.13 in 5.0 mi SSE 3.5 mph - N/A   Mostly Cloudy
8:22 AM 35.6 °F 32.8 °F 35.6 °F 100% 30.10 in 5.0 mi SSE 3.5 mph - N/A   Overcast
8:55 AM 41.7 °F 38.8 °F 41.5 °F 99% 30.13 in 4.0 mi SSE 4.6 mph - N/A   Overcast
9:55 AM 43.5 °F 40.1 °F 42.6 °F 97% 30.13 in 4.0 mi South 5.8 mph - N/A   Overcast
10:10 AM 44.6 °F 40.7 °F 42.8 °F 93% 30.09 in 5.0 mi South 6.9 mph - N/A   Overcast
10:55 AM 46.4 °F 41.5 °F 43.9 °F 91% 30.11 in 4.0 mi SSE 10.4 mph - N/A   Overcast
11:55 AM 47.3 °F - 43.9 °F 88% 30.09 in 6.0 mi SSE 10.4 mph - N/A   Overcast
12:55 PM 48.2 °F - 44.8 °F 88% 30.05 in 7.0 mi SSE 10.4 mph - N/A   Overcast
1:55 PM 50.4 °F - 45.7 °F 84% 30.01 in 10.0 mi SSE 13.8 mph - N/A   Overcast
2:55 PM 49.6 °F - 45.1 °F 84% 29.99 in 10.0 mi SSE 12.7 mph - N/A   Overcast
3:55 PM 50.5 °F - 45.7 °F 83% 29.98 in 10.0 mi SSE 11.5 mph - N/A   Overcast
4:55 PM 49.5 °F - 45.5 °F 86% 29.97 in 10.0 mi SSE 8.1 mph - N/A   Overcast
5:55 PM 51.3 °F - 46.9 °F 85% 29.97 in 12.0 mi South 13.8 mph - N/A   Overcast
6:55 PM 50.0 °F - 46.9 °F 89% 29.95 in 12.0 mi South 11.5 mph - N/A   Overcast
7:47 PM 50.0 °F - 48.2 °F 94% 29.90 in 12.0 mi South 11.5 mph - N/A   Overcast
7:55 PM 50.4 °F - 47.5 °F 90% 29.94 in 12.0 mi South 12.7 mph - N/A   Overcast
8:01 PM 50.0 °F - 48.2 °F 94% 29.91 in 10.0 mi South 12.7 mph - N/A   Overcast
8:41 PM 50.0 °F - 48.2 °F 94% 29.89 in 10.0 mi South 12.7 mph - N/A   Scattered Clouds
8:58 PM 50.2 °F - 48.0 °F 92% 29.90 in 10.0 mi South 11.5 mph - N/A   Scattered Clouds
9:58 PM 50.7 °F - 48.6 °F 92% 29.87 in 10.0 mi South 12.7 mph - N/A   Mostly Cloudy
10:48 PM 50.0 °F - 48.2 °F 94% 29.83 in 10.0 mi South 10.4 mph - N/A   Mostly Cloudy
10:58 PM 50.5 °F - 48.6 °F 93% 29.85 in 10.0 mi South 10.4 mph - N/A   Overcast
11:58 PM 52.0 °F - 49.3 °F 90% 29.84 in 10.0 mi South 12.7 mph - N/A   Mostly Cloudy
11:59 PM 51.8 °F - 50.0 °F 94% 29.82 in 10.0 mi South 12.7 mph - N/A Rain Light Rain